Weather History for Bangkok (Suvarnabhumi), Thailand

Change the Weather History Date:

Saturday, November 26, 2011

  Actual Average (VTBD) Record (VTBD)
Temperature  
Mean Temperature 84 °F -  
Max Temperature 92 °F 89 °F 93 °F (1996)
Min Temperature 75 °F 69 °F 71 °F (2001)
Cooling Degree Days 18    
Growing Degree Days 34 (Base 50)    
Moisture  
Dew Point 68 °F    
Average Humidity 61    
Maximum Humidity 74    
Minimum Humidity 44    
Precipitation  
Precipitation 0.00 in 0.02 in - ()
Sea Level Pressure  
Sea Level Pressure 29.84 in    
Wind  
Wind Speed 6 mph ()    
Max Wind Speed 14 mph    
Max Gust Speed -    
Visibility 5.9 miles    
Events      
Averages and records for this station are not official NWS values.
T = Trace of Precipitation, MM = Missing Value Source: Averaged Metar Reports

Daily Weather History Graph

Daily Weather History Graph

Search for Another Location

Airport:

Trip Planner

Search our weather history database for the weather conditions in past years. The results will help you decide how hot, cold, wet, or windy it might be!

Date:

Astronomy

Nov. 26, 2011 Rise Set
Actual Time 6:20 AM ICT 5:46 PM ICT
Civil Twilight 5:57 AM ICT 6:08 PM ICT
Nautical Twilight 5:31 AM ICT 6:34 PM ICT
Astronomical Twilight 5:05 AM ICT 7:01 PM ICT
Moon 7:09 AM ICT (11/26) 6:52 PM ICT (11/26)
Length of Visible Light 12h 11m
Length of Day
11h 25m
New Moon, 1% of the Moon is Illuminated
Nov 26
New Moon
Dec 2
First Quarter
Dec 10
Full
Dec 18
Last Quarter
Dec 25
New

Hourly Weather History & Observations

Time (ICT) Temp. Heat Index Dew Point Humidity Pressure Visibility Wind Dir Wind Speed Gust Speed Precip Events Conditions
12:00 AM 80.6 °F 82.7 °F 66.2 °F 61% 29.89 in 6.2 mi NNE 4.6 mph - N/A   Scattered Clouds
12:30 AM 78.8 °F - 68.0 °F 69% 29.89 in 6.2 mi NNE 4.6 mph - N/A   Scattered Clouds
1:00 AM 78.8 °F - 68.0 °F 69% 29.89 in 6.2 mi NNE 6.9 mph - N/A   Scattered Clouds
1:30 AM 77.0 °F - 68.0 °F 74% 29.86 in 5.6 mi NNE 5.8 mph - N/A   Unknown
2:00 AM 77.0 °F - 68.0 °F 74% 29.86 in 5.6 mi NNE 5.8 mph - N/A   Unknown
2:30 AM 78.8 °F - 68.0 °F 69% 29.86 in 5.6 mi ENE 3.5 mph - N/A   Unknown
3:00 AM 77.0 °F - 68.0 °F 74% 29.86 in 5.6 mi ENE 2.3 mph - N/A   Unknown
3:30 AM 77.0 °F - 68.0 °F 74% 29.83 in 5.0 mi NE 2.3 mph - N/A   Unknown
4:00 AM 77.0 °F - 68.0 °F 74% 29.83 in 5.0 mi NE 4.6 mph - N/A   Unknown
4:30 AM 77.0 °F - 68.0 °F 74% 29.83 in 4.3 mi NE 6.9 mph - N/A   Unknown
5:00 AM 75.2 °F - 66.2 °F 73% 29.83 in 4.3 mi ENE 6.9 mph - N/A   Unknown
5:30 AM 75.2 °F - 66.2 °F 73% 29.83 in 4.3 mi ENE 5.8 mph - N/A   Unknown
6:30 AM 75.2 °F - 66.2 °F 73% 29.86 in 5.0 mi NE 8.1 mph - N/A   Unknown
7:00 AM 76 °F - 68 °F 70% 29.84 in 7 mi NNE 2.3 mph - -  
7:00 AM 77.0 °F - 66.2 °F 69% 29.86 in 5.6 mi NE 5.8 mph - N/A   Unknown
7:30 AM 78.8 °F - 66.2 °F 65% 29.86 in 5.6 mi NNE 5.8 mph - N/A   Unknown
8:00 AM 80.6 °F 82.7 °F 66.2 °F 61% 29.89 in 5.6 mi ENE 6.9 mph - N/A   Unknown
8:30 AM 80.6 °F 82.7 °F 66.2 °F 61% 29.89 in - ENE 10.4 mph - N/A   Clear
9:00 AM 82.4 °F 84.6 °F 66.2 °F 58% 29.92 in - NE 9.2 mph - N/A   Clear
9:30 AM 82.4 °F 84.6 °F 66.2 °F 58% 29.92 in - NE 11.5 mph - N/A   Clear
10:00 AM 82.4 °F 84.6 °F 66.2 °F 58% 29.92 in - NE 10.4 mph - N/A   Clear
10:30 AM 84.2 °F 86.6 °F 66.2 °F 55% 29.92 in - NE 11.5 mph - N/A   Clear
11:00 AM 86.0 °F 88.2 °F 66.2 °F 51% 29.89 in - NE 10.4 mph - N/A   Clear
11:30 AM 86.0 °F 88.2 °F 66.2 °F 51% 29.89 in 6.2 mi NE 11.5 mph - N/A   Scattered Clouds
12:00 PM 86.0 °F 89.4 °F 68.0 °F 55% 29.86 in 6.2 mi NE 12.7 mph - N/A   Scattered Clouds
12:30 PM 87.8 °F 90.4 °F 66.2 °F 49% 29.86 in 6.2 mi NE 13.8 mph - N/A   Scattered Clouds
1:00 PM 91 °F - 72 °F 44% 29.81 in 7 mi North 4.6 mph - -   Scattered Clouds
1:00 PM 87.8 °F 91.4 °F 68.0 °F 52% 29.83 in 6.2 mi ENE 10.4 mph - N/A   Scattered Clouds
1:30 PM 89.6 °F 92.2 °F 66.2 °F 46% 29.83 in 6.2 mi ENE 12.7 mph - N/A   Scattered Clouds
2:00 PM 89.6 °F 93.4 °F 68.0 °F 49% 29.80 in 6.2 mi ENE 11.5 mph - N/A   Scattered Clouds
2:30 PM 89.6 °F 92.2 °F 66.2 °F 46% 29.80 in 6.2 mi ENE 11.5 mph - N/A   Scattered Clouds
3:00 PM 89.6 °F 92.2 °F 66.2 °F 46% 29.80 in 6.2 mi NE 11.5 mph - N/A   Scattered Clouds
3:30 PM 89.6 °F 93.4 °F 68.0 °F 49% 29.77 in 6.2 mi East 10.4 mph - N/A   Scattered Clouds
4:00 PM 87.8 °F 90.4 °F 66.2 °F 49% 29.77 in 6.2 mi ENE 10.4 mph - N/A   Scattered Clouds
4:30 PM 87.8 °F 91.4 °F 68.0 °F 52% 29.77 in 6.2 mi NE 10.4 mph - N/A   Scattered Clouds
5:00 PM 87.8 °F 91.4 °F 68.0 °F 52% 29.80 in 6.2 mi NE 8.1 mph - N/A   Scattered Clouds
5:30 PM 87.8 °F 91.4 °F 68.0 °F 52% 29.80 in 6.2 mi NE 8.1 mph - N/A   Scattered Clouds
6:00 PM 86.0 °F 90.4 °F 69.8 °F 58% 29.80 in 6.2 mi NE 6.9 mph - N/A   Scattered Clouds
6:30 PM 86.0 °F 90.4 °F 69.8 °F 58% 29.80 in 6.2 mi NE 5.8 mph - N/A   Scattered Clouds
7:00 PM 87 °F - 72 °F 51% 29.80 in 7 mi Calm Calm - -   Clear
7:00 PM 86.0 °F 90.4 °F 69.8 °F 58% 29.83 in 6.2 mi NNE 6.9 mph - N/A   Scattered Clouds
7:30 PM 86.0 °F 90.4 °F 69.8 °F 58% 29.83 in 6.2 mi NNE 4.6 mph - N/A   Scattered Clouds
8:00 PM 84.2 °F 88.4 °F 69.8 °F 62% 29.83 in 6.2 mi NE 4.6 mph - N/A   Scattered Clouds
8:30 PM 84.2 °F 89.6 °F 71.6 °F 66% 29.83 in 6.2 mi NNE 3.5 mph - N/A   Scattered Clouds
9:00 PM 82.4 °F 86.3 °F 69.8 °F 66% 29.83 in 6.2 mi NE 3.5 mph - N/A   Scattered Clouds
9:30 PM 82.4 °F 86.3 °F 69.8 °F 66% 29.83 in - Calm Calm - N/A   Clear
10:00 PM 82.4 °F 86.3 °F 69.8 °F 66% 29.86 in - NNE 4.6 mph - N/A   Clear
10:30 PM 82.4 °F 86.3 °F 69.8 °F 66% 29.86 in - NNE 5.8 mph - N/A   Clear
11:00 PM 80.6 °F 83.2 °F 68.0 °F 65% 29.83 in - North 5.8 mph - N/A   Clear
11:30 PM 80.6 °F 83.9 °F 69.8 °F 70% 29.83 in - NNE 3.5 mph - N/A   Clear